Regional Weather Roundup
Issued by NWS Charleston, SC

Current Version | Previous Version | Graphics & Text | Print | Product List | Glossary On
Versions: 1 2 3 4 5 6 7 8 9 10 11 12 13 14 15 16 17 18 19 20 21 22 23 24 25 26 27 28 29 30 31 32 33 34 35 36 37 38 39 40 41 42 43 44 45 46 47 48 49 50
000
ASUS42 KCHS 232127
RWRCHS

REGIONAL WEATHER ROUNDUP
NATIONAL WEATHER SERVICE CHARLESTON SC
500 PM EDT FRI JUN 23 2017

NOTE: "FAIR" INDICATES FEW OR NO CLOUDS BELOW 12,000 FEET WITH NO
SIGNIFICANT WEATHER AND/OR OBSTRUCTIONS TO VISIBILITY.

NOT ALL STATIONS ARE QUALITY CONTROLLED. USE DATA WITH CAUTION...
ESPECIALLY DEWPOINT OBSERVATIONS.

SCZ027-030-031-034>040-042>050-232200-
...SOUTHEAST SOUTH CAROLINA...

CITY           SKY/WX    TMP DP  RH WIND       PRES   REMARKS
N CHARLESTON   PTSUNNY   87  75  67 S16       29.97F HX  96
WATERFRONT PRK   N/A     83  78  84 S14       29.97F HX  93
JOHNS ISLAND   CLOUDY    86  77  74 S17       29.98F HX  97
PINOPOLIS        N/A     88  79  74 S5        29.89F HX 102
MONCKS CORNER  FAIR      88  77  70 S12G20    29.95F HX 100
SUMMERVILLE    FAIR      86  77  74 S8G16     29.96F HX  97
BEAUFORT MCAS  CLOUDY    86  78  77 S10G18    29.97F HX  98
BEAUFORT ARPT  FAIR      86  77  74 S13G21    29.96F HX  97
HILTON HEAD IS MOSUNNY   84  77  79 S17       29.99F HX  94
WALTERBORO     CLOUDY    86  75  70 S13G21    29.97R HX  95
ALLENDALE      FAIR      88  77  70 S8        29.93F HX 100

...SOUTHERN MIDLANDS AND PEE DEE...

CITY           SKY/WX    TMP DP  RH WIND       PRES   REMARKS
GEORGETOWN     FAIR      86  77  74 SW17      29.98S HX  97
KINGSTREE      FAIR      88  73  62 S7        29.93F HAZE    HX  96
ORANGEBURG     MOSUNNY   92  74  55 S12       29.94F HX 101
BARNWELL       CLOUDY    93  77  59 S9        29.93F HX 107
AIKEN          FAIR      90  70  51 S9G18     29.96F HX  95
MANNING        FAIR      91  68  46 S23G29    29.93F HX  95
COLUMBIA       MOSUNNY   94  69  44 SW17G24   29.91F HX  99
SUMTER         SUNNY     93  72  51 S14       29.91F HX 100
FLORENCE       MOSUNNY   91  73  55 SW15G23   29.92F HX  99
MYRTLE BEACH   MOSUNNY   84  77  79 SW20G28   29.97F HX  94
N MYRTLE BEACH SUNNY     84  76  76 SW22G28   29.96F HX  93

$$

GAZ063-065-086>088-099>101-113>116-118-119-134>141-150-232200-
...SOUTHEAST GEORGIA...

CITY           SKY/WX    TMP DP  RH WIND       PRES   REMARKS
SAVANNAH ARPT  PTSUNNY   92  75  57 S16       29.96F HX 103
HUNTER AAF     MOSUNNY   88  78  71 S9        29.95F HX 101
FORT STEWART   MOSUNNY   94  73  50 S10       29.93F HX 102
STATESBORO     CLOUDY    87  79  76 S6        29.95F HX 101
SYLVANIA       CLOUDY    87  78  76 CALM      29.96F HX 100
CLAXTON        HVY RAIN  82  78  89 S3        29.96F HX  92

...CSRA...CENTRAL AND FAR SOUTHEAST GEORGIA...

CITY           SKY/WX    TMP DP  RH WIND       PRES   REMARKS
THOMSON        MOSUNNY   89  72  55 W10       29.97F HX  96
AUGUSTA-BUSH   MOSUNNY   92  72  51 SW9       29.91F HX  99
AUGUSTA-DANIEL SUNNY     95  67  39 S15G22    29.93F HX  99
SWAINSBORO     FAIR      91  75  59 S10       29.95F HX 102
VIDALIA        MOSUNNY   91  73  55 SW9       29.96S HX 100
EASTMAN        FAIR      94  59  31 SW9       29.97F HX  93
HAZLEHURST     LGT RAIN  81  78  92 SW10G23   29.96S HX  90
ALMA           TSTM      78  74  87 SE6       29.99R
WAYCROSS       CLOUDY    87  80  77 W5        29.97S HX 103
JESUP          FAIR      93  70  46 S8        29.96F HX  99
BAXLEY         RAIN      81  81 100 W13G26    29.98R HX  91
BRUNSWICK      SUNNY     88  77  70 S15       29.99F HX 100
SAINT SIMONS   SUNNY     87  77  72 SE12      29.99F HX  99

$$

SCZ027-028-034-036>038-045-046-048>050-GAZ119-141-232200-
...LAKE AND SUPPLEMENTAL COASTAL OBSERVATIONS...

STATION/POSITION TIME  TEMP    WIND        PRES    WAVE   SWELL
                       AIR SEA DIR/SP/G            HT/PER HT/PER/DIR
                 (UTC) (F)     (DEG/KT/KT) (MB)    (FT/S) (FT/S/D)
WINYAH BAY       2045   85     200/ 15     1015.0S
LAKE MURRAY      2050   89     220/ 11/ 14 1011.9F
ACE BASIN NERRS  2030   85     180/  2     1015.0F
FORT PULASKI     2100   84 84  190/  9/ 15 1015.4
SAPELO ISLAND    2100   89     170/ 15     1015.0

$$

ANZ835-935-AMZ111-154-330-350-352-354-370-450-454-472-232200-
...C-MAN AND BUOY OBSERVATIONS...

STATION/POSITION TIME  TEMP    WIND        PRES    WAVE   SWELL
                       AIR SEA DIR/SP/G            HT/PER HT/PER/DIR
                 (UTC) (F)     (DEG/KT/KT) (MB)    (FT/S) (FT/S/D)
BUOY 41004       2110   81 81  210/ 17/ 21 1015.5
BUOY 41008       2050   81 82  160/ 16/ 19 1015.4F   3/ 8   2/ 90/ 8
FOLLY BEACH CMAN 2100   82     200/ 16/ 18 1016.0F
CAPERS NEARSHORE 2108   86 83  210/ 17/ 23 1014.8F
FRIPP NEARSHORE  2108   82 83  190/ 17/ 23 1014.6F


STATION/POSITION TIME  TEMP    WIND        PRES    WAVE   SWELL
                       AIR SEA DIR/SP/G            HT/PER HT/PER/DIR
                 (UTC) (F)     (DEG/KT/KT) (MB)    (FT/S) (FT/S/D)
5E ST. MARYS GA  2100      81                N/A     3/ 8
FRYING PAN BUOY  2110   82 82  210/ 17/ 21 1015.3
BUOY 41025       2050   81 81  220/ 19/ 25 1014.1F   4/ 4   2/140/ 9
CAPE LOOKOUT NC  2100   82     220/ 15/ 20 1014.1F
BUOY 41002       2050   81 82  200/ 12/ 14 1018.3F   4/ 9   3/110/ 9
BUOY 41010       2110   83 83  160/ 10/ 14 1017.4
ST AUGUSTINE FL  2100   80 81  150/ 12/ 13 1016.4F


$$



USA.gov is the U.S. government's official web portal to all federal, state and local government web resources and services.